Location: Crescent
(42.8242°N, 73.7329°W)
Time: 06:53:32
(UTC+00:00)

Transit 4A - Pass Details

Date: 23 February 2026
Orbit: 864 x 977 km, 66.8° (Epoch: 9 March)

Event Time Altitude Azimuth Distance (km) Brightness Sun altitude
Rises 17:03:05 0° 323° (NW) 3,625 10.6 37.5°
Reaches altitude 10° 17:05:45 10° 316° (NW) 2,691 10.1 37.5°
Maximum altitude 17:11:34 41° 249° (WSW) 1,375 9.5 37.5°
Drops below altitude 10° 17:17:27 10° 181° (S) 2,715 11.7 37.5°
Sets 17:20:09 0° 174° (S) 3,660 11.9 37.5°
